Location: Unspecified
(0.0000°N, 0.0000°E)
Time: 18:57:31
(UTC+00:00)

A-11 Canister half - Pass Details

Date: 07 August 2021
Orbit: 1526 x 1683 km, 47.3° (Epoch: 26 September)

Event Time Altitude Azimuth Distance (km) Brightness Sun altitude
Rises 20:39:05 0° 279° (W) 4,728 12.5 -36.6°
Reaches altitude 10° 20:44:10 10° 256° (WSW) 3,720 11.5 -37.8°
Maximum altitude 20:48:45 14° 226° (SW) 3,357 10.9 -38.8°
Enters shadow 20:52:56 11° 198° (SSW) 3,640 10.9 -39.8°
